Weather History for KHWO - October, 2013

Change the Weather History Date:

Wednesday, October 9, 2013

  Actual Average (KFLL) Record (KFLL)
Temperature  
Mean Temperature 78 °F 82 °F  
Max Temperature 87 °F 87 °F 98 °F (2000)
Min Temperature 71 °F 76 °F 56 °F (1920)
Degree Days  
Heating Degree Days 0 0  
Month to date heating degree days 0  
Since 1 July heating degree days 0  
Cooling Degree Days 14 17  
Month to date cooling degree days 154  
Year to date cooling degree days 3866  
Growing Degree Days 28 (Base 50)    
Moisture  
Dew Point 72 °F    
Average Humidity 83    
Maximum Humidity 97    
Minimum Humidity 66    
Precipitation  
Precipitation 0.08 in 0.29 in 3.20 in (1942)
Month to date precipitation 2.51  
Year to date precipitation 52.17  
Snow  
Snow 0.00 in - - ()
Month to date snowfall  
Since 1 July snowfall  
Since 1 September snowfall  
Snow Depth -    
Sea Level Pressure  
Sea Level Pressure 29.97 in    
Wind  
Wind Speed 6 mph (NW)    
Max Wind Speed 15 mph    
Max Gust Speed 20 mph    
Visibility 10 miles    
Events Rain    
T = Trace of Precipitation, MM = Missing Value Source: NWS Daily Summary

Daily Weather History Graph

Daily Weather History Graph

Search for Another Location

Airport or City:

Trip Planner

Search our weather history database for the weather conditions in past years. The results will help you decide how hot, cold, wet, or windy it might be!

Date:

Astronomy

Oct. 09, 2013 Rise Set
Actual Time 7:17 AM EDT 6:58 PM EDT
Civil Twilight 6:53 AM EDT 7:21 PM EDT
Nautical Twilight 6:27 AM EDT 7:48 PM EDT
Astronomical Twilight 6:00 AM EDT 8:15 PM EDT
Moon 11:48 AM EDT (10/9) 10:53 PM EDT (10/9)
Length of Visible Light 12h 28m
Length of Day
11h 41m
Waxing Crescent, 25% of the Moon is Illuminated
Oct 9
Waxing Crescent
Oct 11
First Quarter
Oct 18
Full
Oct 26
Last Quarter
Nov 3
New

Hourly Weather History & Observations

Time (EDT) Temp. Heat Index Dew Point Humidity Pressure Visibility Wind Dir Wind Speed Gust Speed Precip Events Conditions
12:53 AM 75.9 °F - 70.0 °F 82% 29.95 in 10.0 mi West 4.6 mph - N/A   Clear
1:53 AM 75.0 °F - 70.0 °F 84% 29.95 in 10.0 mi West 4.6 mph - N/A   Clear
2:53 AM 73.0 °F - 70.0 °F 90% 29.95 in 10.0 mi WSW 3.5 mph - N/A   Clear
3:53 AM 73.0 °F - 71.1 °F 93% 29.94 in 10.0 mi WNW 3.5 mph - N/A   Clear
4:53 AM 72.0 °F - 70.0 °F 93% 29.94 in 10.0 mi Calm Calm - N/A   Clear
5:53 AM 72.0 °F - 70.0 °F 93% 29.95 in 10.0 mi WSW 4.6 mph - N/A   Clear
6:53 AM 71.1 °F - 69.1 °F 93% 29.96 in 10.0 mi West 3.5 mph - N/A   Partly Cloudy
7:53 AM 72.0 °F - 71.1 °F 97% 29.97 in 10.0 mi West 3.5 mph - N/A   Clear
8:53 AM 73.9 °F - 72.0 °F 93% 29.98 in 10.0 mi West 4.6 mph - N/A   Clear
9:53 AM 80.1 °F 84.2 °F 73.0 °F 79% 30.00 in 10.0 mi WNW 6.9 mph - N/A   Clear
10:33 AM 80.6 °F 85.4 °F 73.4 °F 79% 30.00 in 10.0 mi NW 10.4 mph - N/A   Mostly Cloudy
10:53 AM 81.0 °F 85.2 °F 72.0 °F 74% 30.01 in 10.0 mi WNW 9.2 mph - N/A   Scattered Clouds
11:53 AM 82.0 °F 87.4 °F 73.0 °F 74% 30.01 in 10.0 mi NW 8.1 mph - N/A   Scattered Clouds
12:53 PM 82.9 °F 88.8 °F 73.0 °F 72% 29.99 in 10.0 mi NW 9.2 mph - N/A   Scattered Clouds
1:42 PM 82.4 °F 87.2 °F 71.6 °F 70% 29.97 in 10.0 mi NNW 10.4 mph - N/A   Mostly Cloudy
1:53 PM 82.9 °F 88.8 °F 73.0 °F 72% 29.98 in 10.0 mi NW 8.1 mph - N/A   Mostly Cloudy
2:17 PM 86.0 °F 93.4 °F 73.4 °F 66% 29.97 in 10.0 mi NW 9.2 mph - N/A   Overcast
2:53 PM 84.0 °F 91.2 °F 73.9 °F 72% 29.96 in 10.0 mi NW 13.8 mph 19.6 mph N/A   Mostly Cloudy
3:53 PM 86.0 °F 93.8 °F 73.9 °F 67% 29.95 in 10.0 mi NNW 15.0 mph - N/A   Mostly Cloudy
4:04 PM 82.4 °F 88.2 °F 73.4 °F 74% 29.95 in 10.0 mi North 9.2 mph - 0.00 in Rain Light Rain
4:20 PM 82.4 °F 88.2 °F 73.4 °F 74% 29.95 in 10.0 mi NNW 10.4 mph - 0.00 in Rain Light Rain
4:53 PM 82.9 °F 88.8 °F 73.0 °F 72% 29.95 in 10.0 mi NW 6.9 mph - 0.00 in   Partly Cloudy
5:53 PM 80.1 °F 84.5 °F 73.9 °F 81% 29.96 in 10.0 mi NNW 10.4 mph - 0.00 in   Overcast
6:53 PM 75.0 °F - 73.9 °F 96% 29.96 in 3.0 mi NNE 5.8 mph - 0.07 in Rain Light Rain
7:53 PM 77.0 °F - 75.0 °F 94% 29.97 in 10.0 mi Calm Calm - 0.01 in   Overcast
8:53 PM 77.0 °F - 75.0 °F 94% 29.98 in 10.0 mi North 6.9 mph - N/A   Overcast
9:53 PM 75.0 °F - 73.0 °F 94% 30.00 in 10.0 mi North 9.2 mph - N/A   Mostly Cloudy
10:53 PM 77.0 °F - 73.0 °F 88% 30.01 in 10.0 mi North 4.6 mph - N/A   Mostly Cloudy
11:53 PM 75.9 °F - 73.0 °F 91% 30.01 in 10.0 mi NNW 4.6 mph - N/A   Clear